Location: Seattle
(47.6064°N, 122.3308°W)
Time: 15:15:57
(UTC-08:00)

Vanguard 3 - All Passes

Search period start: 05 December 2020 00:00
Search period end: 15 December 2020 00:00
Orbit: 508 x 3262 km, 33.3° (Epoch: 05 December)

Date Brightness Start Highest point End Pass type
(mag) Time Alt. Az. Time Alt. Az. Time Alt. Az.
05 Dec - 20:34:10 10° SSW 20:34:51 10° S 20:35:32 10° S visible
06 Dec - 19:19:55 10° SSW 19:21:26 11° S 19:22:50 10° SSE visible
07 Dec - 18:05:51 10° SSW 18:07:55 12° S 18:09:45 10° SSE visible
07 Dec - 20:17:29 10° SSW 20:18:33 11° S 20:19:35 10° S visible
08 Dec - 16:52:01 10° S 16:54:14 12° S 16:56:11 10° SSE visible
08 Dec - 19:02:39 10° SW 19:05:09 14° S 19:07:19 10° SSE visible
09 Dec - 15:39:35 10° SSE 15:40:18 10° SSE 15:41:01 10° SSE daylight
09 Dec - 17:47:59 10° SSW 17:51:38 16° S 17:54:32 10° SE visible
09 Dec - 20:00:44 10° SW 20:02:15 12° SSW 20:03:38 10° S visible
10 Dec - 16:33:22 10° SSW 16:37:53 16° S 16:41:23 10° SE daylight
10 Dec - 18:45:28 10° SW 18:48:52 16° S 18:51:37 10° SSE visible
11 Dec - 15:19:04 10° SSW 15:23:52 15° SSE 15:27:39 10° SE daylight
11 Dec - 17:30:20 10° SW 17:35:19 19° S 17:38:59 10° SE visible
11 Dec - 19:43:55 10° SW 19:45:54 12° SSW 19:47:40 10° S visible
12 Dec - 14:05:53 10° S 14:09:33 12° SSE 14:12:42 10° SE daylight
12 Dec - 16:15:10 10° SW 16:21:29 20° S 16:25:59 10° SE daylight
12 Dec - 18:28:15 10° SW 18:32:32 18° SSW 18:35:48 10° SSE visible
13 Dec - 15:00:09 10° SSW 15:07:21 19° SSE 15:12:32 10° SE daylight
13 Dec - 17:12:42 10° SW 17:18:57 23° S 17:23:16 10° SE visible
13 Dec - 19:27:01 10° SW 19:29:32 13° SSW 19:31:40 10° S visible
14 Dec - 13:45:47 10° SSW 13:52:53 16° SSE 13:58:19 10° SE daylight
14 Dec - 15:57:03 10° SW 16:05:01 25° S 16:10:21 10° ESE daylight
14 Dec - 18:10:57 10° WSW 18:16:10 20° SSW 18:19:56 10° SSE visible
